Time,TemperatureF,DewpointF,PressureIn,WindDirection,WindDirectionDegrees,WindSpeedMPH,WindSpeedGustMPH,Humidity,HourlyPrecipIn,Conditions,Clouds,dailyrainin,SoftwareType,DateUTC
2013-07-22 00:02:00,69.0,64.0,-100.00,SE,125,1.0,1.0,85,-99.99,,,-99.99,,2013-07-22 05:02:00,
2013-07-22 00:11:00,69.0,64.0,-100.00,SE,125,1.0,1.0,85,-99.99,,,-99.99,,2013-07-22 05:11:00,
2013-07-22 00:22:00,69.0,64.0,-100.00,SE,125,1.0,1.0,85,-99.99,,,-99.99,,2013-07-22 05:22:00,
2013-07-22 00:43:00,69.0,64.0,-100.00,SE,140,1.0,1.0,86,-99.99,,,-99.99,,2013-07-22 05:43:00,
2013-07-22 00:52:00,69.0,64.0,-100.00,SE,140,1.0,1.0,86,-99.99,,,-99.99,,2013-07-22 05:52:00,
2013-07-22 01:01:00,69.0,64.0,-100.00,SE,140,1.0,1.0,86,-99.99,,,-99.99,,2013-07-22 06:01:00,
2013-07-22 01:11:00,69.0,64.0,-100.00,SE,140,1.0,1.0,86,-99.99,,,-99.99,,2013-07-22 06:11:00,
2013-07-22 01:43:00,70.0,66.0,-100.00,SSW,200,1.0,1.0,85,-99.99,,,-99.99,,2013-07-22 06:43:00,
2013-07-22 01:52:00,70.0,66.0,-100.00,SSW,200,1.0,1.0,85,-99.99,,,-99.99,,2013-07-22 06:52:00,
2013-07-22 02:12:00,68.0,65.0,-100.00,SSE,150,1.0,1.0,90,-99.99,,,-99.99,,2013-07-22 07:12:00,
2013-07-22 02:22:00,68.0,65.0,-100.00,SSE,150,1.0,1.0,90,-99.99,,,-99.99,,2013-07-22 07:22:00,
2013-07-22 02:33:00,68.0,65.0,-100.00,SSE,150,1.0,1.0,90,-99.99,,,-99.99,,2013-07-22 07:33:00,
2013-07-22 02:43:00,68.0,65.0,-100.00,SSE,150,1.0,1.0,90,-99.99,,,-99.99,,2013-07-22 07:43:00,
2013-07-22 03:22:00,68.0,65.0,-100.00,SSE,150,1.0,1.0,89,-99.99,,,-99.99,,2013-07-22 08:22:00,
2013-07-22 03:32:00,68.0,65.0,-100.00,SSE,150,1.0,1.0,89,-99.99,,,-99.99,,2013-07-22 08:32:00,
2013-07-22 03:43:00,68.0,65.0,-100.00,SSE,150,1.0,1.0,89,-99.99,,,-99.99,,2013-07-22 08:43:00,
2013-07-22 04:11:00,70.0,65.0,-100.00,ENE,70,1.0,1.0,85,-99.99,,,-99.99,,2013-07-22 09:11:00,
2013-07-22 04:22:00,70.0,65.0,-100.00,ENE,70,1.0,1.0,85,-99.99,,,-99.99,,2013-07-22 09:22:00,
2013-07-22 04:52:00,64.0,61.0,-100.00,ESE,115,1.0,1.0,90,-99.99,,,-99.99,,2013-07-22 09:52:00,
2013-07-22 05:11:00,66.0,63.0,-100.00,WSW,245,1.0,1.0,89,-99.99,,,-99.99,,2013-07-22 10:11:00,
2013-07-22 05:22:00,66.0,63.0,-100.00,WSW,245,1.0,1.0,89,-99.99,,,-99.99,,2013-07-22 10:22:00,
2013-07-22 05:32:00,66.0,63.0,-100.00,WSW,245,1.0,1.0,89,-99.99,,,-99.99,,2013-07-22 10:32:00,
2013-07-22 05:43:00,67.0,64.0,-100.00,SW,230,1.0,1.0,90,-99.99,,,-99.99,,2013-07-22 10:43:00,
2013-07-22 05:53:00,67.0,64.0,-100.00,SW,230,1.0,1.0,90,-99.99,,,-99.99,,2013-07-22 10:53:00,
2013-07-22 06:11:00,68.0,64.0,-100.00,SW,235,1.0,1.0,87,-99.99,,,-99.99,,2013-07-22 11:11:00,
2013-07-22 06:23:00,68.0,64.0,-100.00,SW,235,1.0,1.0,87,-99.99,,,-99.99,,2013-07-22 11:23:00,
2013-07-22 06:32:00,62.0,59.0,-100.00,WNW,295,1.0,1.0,90,-99.99,,,-99.99,,2013-07-22 11:32:00,
2013-07-22 06:43:00,68.0,65.0,-100.00,WNW,295,1.0,1.0,90,-99.99,,,-99.99,,2013-07-22 11:43:00,
2013-07-22 06:52:00,68.0,65.0,-100.00,WNW,295,1.0,1.0,90,-99.99,,,-99.99,,2013-07-22 11:52:00,
2013-07-22 07:22:00,68.0,65.0,-100.00,WNW,295,1.0,1.0,88,-99.99,,,-99.99,,2013-07-22 12:22:00,
2013-07-22 08:43:00,74.0,64.0,-100.00,WNW,295,1.0,1.0,71,-99.99,,,-99.99,,2013-07-22 13:43:00,
2013-07-22 08:53:00,74.0,64.0,-100.00,WNW,295,1.0,1.0,71,-99.99,,,-99.99,,2013-07-22 13:53:00,
2013-07-22 09:11:00,78.0,66.0,-100.00,NW,315,1.0,1.0,66,-99.99,,,-99.99,,2013-07-22 14:11:00,
2013-07-22 09:22:00,78.0,66.0,-100.00,NW,315,1.0,1.0,66,-99.99,,,-99.99,,2013-07-22 14:22:00,
2013-07-22 10:11:00,77.0,64.0,-100.00,NW,310,1.0,1.0,63,-99.99,,,-99.99,,2013-07-22 15:11:00,
2013-07-22 10:22:00,77.0,64.0,-100.00,NW,310,1.0,1.0,63,-99.99,,,-99.99,,2013-07-22 15:22:00,
2013-07-22 10:52:00,80.0,64.0,-100.00,NW,320,1.0,1.0,58,-99.99,,,-99.99,,2013-07-22 15:52:00,
2013-07-22 11:22:00,79.0,61.0,-100.00,West,280,1.0,1.0,53,-99.99,,,-99.99,,2013-07-22 16:22:00,
2013-07-22 11:32:00,80.0,63.0,-100.00,WNW,295,1.0,1.0,56,-99.99,,,-99.99,,2013-07-22 16:32:00,
2013-07-22 13:27:00,82.0,63.0,-100.00,WNW,300,1.0,1.0,52,-99.99,,,-99.99,,2013-07-22 18:27:00,
2013-07-22 14:16:00,84.0,62.0,-100.00,SW,215,1.0,1.0,48,-99.99,,,-99.99,,2013-07-22 19:16:00,
2013-07-22 14:24:00,84.0,62.0,-100.00,SW,215,1.0,1.0,48,-99.99,,,-99.99,,2013-07-22 19:24:00,
2013-07-22 14:36:00,84.0,62.0,-100.00,SW,215,1.0,1.0,48,-99.99,,,-99.99,,2013-07-22 19:36:00,
2013-07-22 14:45:00,85.0,65.0,-100.00,West,265,1.0,1.0,52,-99.99,,,-99.99,,2013-07-22 19:45:00,
2013-07-22 14:55:00,85.0,65.0,-100.00,West,265,1.0,1.0,52,-99.99,,,-99.99,,2013-07-22 19:55:00,
2013-07-22 15:43:00,84.0,62.0,-100.00,WSW,245,1.0,1.0,47,-99.99,,,-99.99,,2013-07-22 20:43:00,
2013-07-22 15:52:00,84.0,62.0,-100.00,WSW,245,1.0,1.0,47,-99.99,,,-99.99,,2013-07-22 20:52:00,
2013-07-22 16:12:00,88.0,63.0,-100.00,SW,225,1.0,1.0,43,-99.99,,,-99.99,,2013-07-22 21:12:00,
2013-07-22 17:11:00,86.0,66.0,-100.00,WSW,245,1.0,1.0,51,-99.99,,,-99.99,,2013-07-22 22:11:00,
2013-07-22 17:22:00,86.0,66.0,-100.00,WSW,245,1.0,1.0,51,-99.99,,,-99.99,,2013-07-22 22:22:00,
2013-07-22 19:01:00,83.0,66.0,-100.00,SW,230,1.0,1.0,55,-99.99,,,-99.99,,2013-07-23 00:01:00,
2013-07-22 19:12:00,84.0,64.0,-100.00,WSW,240,1.0,1.0,52,-99.99,,,-99.99,,2013-07-23 00:12:00,
2013-07-22 19:22:00,84.0,64.0,-100.00,WSW,240,1.0,1.0,52,-99.99,,,-99.99,,2013-07-23 00:22:00,
2013-07-22 19:52:00,84.0,66.0,-100.00,WSW,245,1.0,1.0,56,-99.99,,,-99.99,,2013-07-23 00:52:00,
2013-07-22 20:11:00,82.0,69.0,-100.00,SW,225,1.0,1.0,63,-99.99,,,-99.99,,2013-07-23 01:11:00,
2013-07-22 20:22:00,82.0,69.0,-100.00,SW,225,1.0,1.0,63,-99.99,,,-99.99,,2013-07-23 01:22:00,
2013-07-22 21:11:00,78.0,70.0,-100.00,SSW,205,1.0,1.0,77,-99.99,,,-99.99,,2013-07-23 02:11:00,
2013-07-22 21:22:00,78.0,70.0,-100.00,SSW,205,1.0,1.0,77,-99.99,,,-99.99,,2013-07-23 02:22:00,
2013-07-22 21:33:00,78.0,70.0,-100.00,SSW,205,1.0,1.0,77,-99.99,,,-99.99,,2013-07-23 02:33:00,
2013-07-22 22:22:00,73.0,67.0,-100.00,SSE,155,1.0,1.0,80,-99.99,,,-99.99,,2013-07-23 03:22:00,
2013-07-22 22:52:00,71.0,69.0,-100.00,South,190,1.0,1.0,92,-99.99,,,-99.99,,2013-07-23 03:52:00,
2013-07-22 23:11:00,70.0,65.0,-100.00,SSW,205,1.0,1.0,83,-99.99,,,-99.99,,2013-07-23 04:11:00,
2013-07-22 23:22:00,70.0,65.0,-100.00,SSW,205,1.0,1.0,83,-99.99,,,-99.99,,2013-07-23 04:22:00,
2013-07-22 23:32:00,74.0,69.0,-100.00,WSW,240,1.0,1.0,85,-99.99,,,-99.99,,2013-07-23 04:32:00,
2013-07-22 23:43:00,71.0,69.0,-100.00,West,260,1.0,1.0,92,-99.99,,,-99.99,,2013-07-23 04:43:00,
2013-07-22 23:53:00,71.0,69.0,-100.00,West,260,1.0,1.0,92,-99.99,,,-99.99,,2013-07-23 04:53:00,